[[{"header":{"parameterUnit":"m.s-1","parameterCategory":1,"la1":30.2991,"la2":30.254,"lo1":-89.0895,"lo2":-89.0444,"dy":0.0017,"dx":0.0017,"nx":28,"ny":28,"refTime":"2023-09-18T09:00:00:Z","depth":0,"parameterNumber":2,"parameterNumberName":"U-component_of_WINDS"},"data":[0,0,0,0,0,0,0,0,0,0,0,0,0,0,0,0,0,0,0,0,0,0,0,0,0,0,0,0,0,0,0,0,0,0,0,0,0,0,0,0,0,0,0,0,0,0,0,0,0,0,0,0,0,0,0,0,0,0,-2.0973,-2.0973,0,-2.0953,-2.0953,-2.0953,-2.0885,-2.0884,-2.0882,-2.0881,-2.0861,-2.0862,-2.0863,0,0,0,0,0,0,0,0,0,0,0,0,0,-2.0954,-2.0955,-2.0973,-2.0973,-2.0973,-2.0953,-2.0953,-2.0953,-2.0885,-2.0884,-2.0882,-2.088,-2.0861,-2.0862,-2.0863,0,0,0,0,0,0,0,0,0,0,0,0,0,-2.0951,-2.0955,-2.0973,-2.0937,-2.0933,-2.0953,-2.0953,-2.0953,-2.0886,-2.0884,-2.0881,-2.0879,-2.0861,-2.0862,-2.0863,-2.0917,0,0,-2.0868,-2.0868,0,0,0,0,0,0,0,0,-2.0952,-2.0952,-2.0942,-2.0939,-2.0935,-2.0919,-2.0939,-2.0941,-2.0886,-2.0904,-2.0881,-2.0878,-2.0883,-2.0882,-2.0883,-2.0917,-2.0916,-2.0868,-2.0869,-2.0869,-2.087,0,0,0,0,0,0,0,-2.0952,-2.0953,-2.0965,-2.0942,-2.0938,-2.0922,-2.0919,-2.0939,-2.0906,-2.0902,-2.0897,-2.0896,-2.088,-2.0882,-2.0882,-2.0915,-2.0868,-2.0869,-2.087,-2.087,-2.0994,-2.0996,0,0,0,0,0,0,-2.0957,-2.0953,-2.0966,-2.0965,-2.0938,-2.0924,-2.0921,-2.0927,-2.0906,-2.0901,-2.0898,-2.0893,-2.0881,-2.0881,-2.0881,-2.0945,-2.0869,-2.087,-2.0871,-2.0991,-2.0994,-2.0997,0,0,0,0,0,0,-2.0957,-2.0959,-2.0967,-2.0958,-2.0957,-2.0927,-2.0934,-2.0928,-2.0929,-2.0902,-2.0896,-2.0906,-2.0879,-2.088,-2.0909,-2.0943,-2.0871,-2.0872,-2.0988,-2.0992,-2.0995,-2.1071,0,0,0,0,0,0,-2.0957,-2.0959,-2.0979,-2.0958,-2.0958,-2.0995,-2.0936,-2.0929,-2.0932,-2.0925,-2.0908,-2.0903,-2.0877,-2.0908,-2.0911,-2.0944,-2.0873,-2.0985,-2.099,-2.0994,-2.1066,-2.1077,-2.1087,0,0,0,0,0,-2.0956,-2.1001,-2.098,-2.0982,-2.0982,-2.0997,-2.0996,-2.0965,-2.0935,-2.0955,-2.0938,-2.0904,-2.0939,-2.0911,-2.0914,-2.0948,-2.0983,-2.0989,-2.0994,-2.1061,-2.1075,-2.1087,0,0,0,0,0,0,-2.1027,-2.0998,-2.0974,-2.1014,-2.1008,-2.0985,-2.101,-2.0981,-2.0984,-2.0978,-2.0939,-2.0936,-2.0972,-2.0962,-2.0933,-2.1,-2.0955,-2.0962,-2.1005,-2.1018,-2.1029,-2.1031,-2.0874,0,0,0,0,0,-2.1047,-2.106,-2.1034,-2.1072,-2.107,-2.1041,-2.1046,-2.1022,-2.1015,-2.1012,-2.0997,-2.0992,-2.1002,-2.1009,-2.1016,-2.1063,-2.106,-2.1088,-2.1099,-2.1108,-2.1114,-2.114,-2.1153,-2.1015,-2.1015,-2.1015,0,0,-2.1088,-2.1074,-2.1085,-2.1086,-2.1078,-2.1095,-2.1039,-2.1058,-2.107,-2.1015,-2.1043,-2.1032,-2.1023,-2.1063,-2.1079,-2.1056,-2.1151,-2.1115,-2.1122,-2.1124,-2.1147,-2.116,-2.1172,-2.1019,-2.1018,-2.1017,0,0,-2.1173,-2.1163,-2.1194,-2.1188,-2.1178,-2.1158,-2.1166,-2.1147,-2.1138,-2.1164,-2.1124,-2.1138,-2.1155,-2.1151,-2.1152,-2.1235,-2.1205,-2.1239,-2.1295,-2.1321,-2.1332,-2.1341,-2.1373,-2.1385,-2.1245,-2.1245,-2.1245,0,-2.1226,-2.1248,-2.1213,-2.1235,-2.1237,-2.1188,-2.122,-2.1216,-2.1209,-2.1212,-2.1186,-2.1207,-2.1198,-2.1236,-2.1257,-2.1258,-2.1267,-2.1241,-2.1333,-2.1342,-2.135,-2.138,-2.1392,-2.1249,-2.1249,-2.1248,-2.1248,0,-2.1316,-2.1332,-2.1358,-2.1353,-2.1357,-2.1384,-2.1354,-2.1362,-2.1339,-2.1322,-2.1351,-2.1338,-2.1342,-2.1349,-2.1326,-2.1385,-2.1371,-2.134,-2.1294,-2.1369,-2.1396,-2.1407,-2.1256,-2.1254,-2.1253,-2.1252,0,0,-2.1445,-2.142,-2.1431,-2.1428,-2.1414,-2.1426,-2.1451,-2.1455,-2.1465,-2.1461,-2.1482,-2.1498,-2.1469,-2.1469,-2.1445,-2.1467,-2.1537,-2.1433,-2.1432,-2.1455,-2.1604,-2.1629,-2.1643,-2.1516,-2.1518,-2.152,-2.1605,0,-2.1527,-2.1568,-2.1538,-2.1584,-2.16,-2.1554,-2.1575,-2.1569,-2.1554,-2.1565,-2.1548,-2.1561,-2.1521,-2.1521,-2.1541,-2.1525,-2.1567,-2.1518,-2.1537,-2.1538,-2.1543,-2.1657,-2.1684,-2.1765,-2.1615,-2.1617,-2.1618,0,-2.1628,-2.163,-2.1679,-2.1663,-2.1668,-2.1688,-2.169,-2.1701,-2.1694,-2.1681,-2.1682,-2.1652,-2.1676,-2.163,-2.1664,-2.1631,-2.1637,-2.163,-2.1632,-2.1635,-2.1584,-2.1665,-2.179,-2.1803,-2.1635,-2.1633,-2.1632,0,-2.1721,-2.1735,-2.1767,-2.1766,-2.1747,-2.1762,-2.1755,-2.1745,-2.175,-2.1752,-2.1755,-2.176,-2.1763,-2.1768,-2.174,-2.1709,-2.1778,-2.1729,-2.177,-2.1771,-2.1788,-2.1788,-2.1919,-2.1788,-2.1788,-2.1788,-2.1788,0,-2.1817,-2.1849,-2.1808,-2.1828,-2.1863,-2.1827,-2.1863,-2.1851,-2.1842,-2.1859,-2.1819,-2.1836,-2.1797,-2.1811,-2.1789,-2.1821,-2.1822,-2.1814,-2.1808,-2.1819,-2.182,-2.1824,-2.1818,-2.1791,-2.179,-2.179,-2.1789,0,-2.1927,-2.19,-2.1932,-2.1911,-2.1907,-2.1934,-2.1917,-2.1934,-2.1916,-2.1938,-2.1942,-2.1914,-2.1927,-2.19,-2.1909,-2.1895,-2.1941,-2.1925,-2.1944,-2.194,-2.1983,-2.1981,-2.2123,-2.214,-2.1997,-2.1998,-2.1999,0,-2.1991,-2.2015,-2.1997,-2.2006,-2.2001,-2.2015,-2.202,-2.1986,-2.1993,-2.1987,-2.2006,-2.2015,-2.2022,-2.2046,-2.2027,-2.2034,-2.202,-2.2069,-2.2021,-2.2032,-2.2024,-2.2024,-2.2027,-2.208,-2.2082,-2.2083,-2.2084,0,-2.2109,-2.2095,-2.2104,-2.2109,-2.2116,-2.2118,-2.2117,-2.2126,-2.209,-2.21,-2.2113,-2.2118,-2.2128,-2.214,-2.2143,-2.2136,-2.2105,-2.2099,-2.211,-2.2122,-2.2133,-2.213,-2.1974,-2.2097,-2.2096,-2.2095,-2.2094,-2.2093,-2.22,-2.222,-2.2211,-2.2222,-2.2218,-2.2218,-2.2234,-2.2218,-2.2229,-2.2235,-2.2213,-2.2232,-2.2224,-2.2225,-2.2222,-2.2237,-2.2215,-2.2229,-2.2233,-2.2238,-2.2246,-2.2129,-2.2237,-2.2236,-2.2236,-2.2235,-2.2235,0,-2.2318,-2.231,-2.232,-2.2321,-2.233,-2.2299,-2.2297,-2.2307,-2.2324,-2.2319,-2.2326,-2.2343,-2.2353,-2.2335,-2.2343,-2.2359,-2.2345,-2.2362,-2.2362,-2.2361,-2.2264,-2.2255,-2.2373,-2.2373,-2.2373,-2.2373,-2.2373,-2.2373,-2.238,-2.2413,-2.2398,-2.2428,-2.2419,-2.2437,-2.2439,-2.2439,-2.2436,-2.2456,-2.2464,-2.2452,-2.2442,-2.2449,-2.2458,-2.2453,-2.2459,-2.2482,-2.2472,-2.2381,-2.2368,-2.2355,-2.2347,-2.2483,-2.2483,-2.2568,-2.2569,-2.257]},{"header":{"parameterUnit":"m.s-1","parameterCategory":1,"la1":30.2991,"la2":30.254,"lo1":-89.0895,"lo2":-89.0444,"dy":0.0017,"dx":0.0017,"nx":28,"ny":28,"refTime":"2023-09-18T09:00:00:Z","depth":0,"parameterNumber":3,"parameterNumberName":"V-component_of_WINDS"},"data":[0,0,0,0,0,0,0,0,0,0,0,0,0,0,0,0,0,0,0,0,0,0,0,0,0,0,0,0,0,0,0,0,0,0,0,0,0,0,0,0,0,0,0,0,0,0,0,0,0,0,0,0,0,0,0,0,0,0,-1.3615,-1.3616,0,-1.3664,-1.3665,-1.3665,-1.3641,-1.364,-1.3638,-1.3637,-1.3688,-1.3691,-1.3693,0,0,0,0,0,0,0,0,0,0,0,0,0,-1.35,-1.3502,-1.3615,-1.3616,-1.3616,-1.3664,-1.3665,-1.3666,-1.3641,-1.364,-1.3638,-1.3637,-1.3687,-1.369,-1.3693,0,0,0,0,0,0,0,0,0,0,0,0,0,-1.355,-1.3503,-1.3615,-1.361,-1.361,-1.3664,-1.3665,-1.3666,-1.3641,-1.3639,-1.3638,-1.3636,-1.3686,-1.369,-1.3694,-1.3756,0,0,-1.3706,-1.3707,0,0,0,0,0,0,0,0,-1.3547,-1.3554,-1.361,-1.361,-1.361,-1.3644,-1.3643,-1.3696,-1.3642,-1.3629,-1.3637,-1.3635,-1.3675,-1.368,-1.3693,-1.3759,-1.3761,-1.3706,-1.3708,-1.371,-1.3711,0,0,0,0,0,0,0,-1.3543,-1.3552,-1.3635,-1.3611,-1.3611,-1.3605,-1.361,-1.3653,-1.3663,-1.363,-1.3629,-1.3635,-1.3675,-1.369,-1.3694,-1.3761,-1.3706,-1.3709,-1.3712,-1.3713,-1.388,-1.3882,0,0,0,0,0,0,-1.354,-1.3549,-1.3633,-1.3636,-1.3573,-1.3609,-1.3614,-1.3636,-1.3662,-1.3664,-1.3636,-1.3634,-1.3684,-1.369,-1.3696,-1.3771,-1.371,-1.3713,-1.3716,-1.3878,-1.3881,-1.3883,0,0,0,0,0,0,-1.3538,-1.3548,-1.3631,-1.3592,-1.3602,-1.3613,-1.3637,-1.3637,-1.3652,-1.3667,-1.3668,-1.365,-1.3683,-1.3691,-1.3741,-1.3772,-1.3715,-1.3719,-1.3875,-1.3879,-1.3882,-1.3921,0,0,0,0,0,0,-1.3535,-1.3547,-1.3571,-1.3593,-1.3604,-1.3676,-1.3639,-1.364,-1.3659,-1.3655,-1.368,-1.3682,-1.3682,-1.3736,-1.3745,-1.3777,-1.3722,-1.3873,-1.3877,-1.3881,-1.3917,-1.3926,-1.3933,0,0,0,0,0,-1.353,-1.358,-1.3572,-1.3583,-1.3634,-1.3677,-1.3684,-1.3683,-1.3661,-1.3686,-1.3695,-1.3681,-1.3767,-1.3741,-1.3752,-1.3785,-1.3871,-1.3876,-1.388,-1.3914,-1.3924,-1.3932,0,0,0,0,0,0,-1.3562,-1.3583,-1.3575,-1.3633,-1.3654,-1.3673,-1.3704,-1.3694,-1.3721,-1.3717,-1.3715,-1.372,-1.3773,-1.3784,-1.3754,-1.3846,-1.3816,-1.3823,-1.3838,-1.3847,-1.3855,-1.3852,-1.3725,0,0,0,0,0,-1.3576,-1.3609,-1.3626,-1.3675,-1.3686,-1.3693,-1.3712,-1.3709,-1.3731,-1.3739,-1.3752,-1.3774,-1.3806,-1.3827,-1.3857,-1.3918,-1.3923,-1.3946,-1.3954,-1.396,-1.3967,-1.4,-1.4011,-1.3899,-1.3899,-1.3899,0,0,-1.3605,-1.362,-1.3642,-1.3682,-1.3698,-1.3733,-1.3701,-1.3739,-1.3764,-1.3745,-1.3794,-1.3804,-1.3828,-1.3884,-1.391,-1.3895,-1.3998,-1.3966,-1.3971,-1.3974,-1.4006,-1.4017,-1.4026,-1.3902,-1.3901,-1.3901,0,0,-1.3676,-1.369,-1.3734,-1.375,-1.3774,-1.3778,-1.3788,-1.381,-1.3816,-1.3864,-1.3851,-1.3881,-1.3936,-1.3954,-1.397,-1.4046,-1.4035,-1.4056,-1.4096,-1.4129,-1.4137,-1.4145,-1.4173,-1.4183,-1.4062,-1.4062,-1.4062,0,-1.3709,-1.376,-1.3757,-1.3796,-1.3815,-1.3798,-1.3842,-1.3858,-1.3891,-1.3904,-1.3887,-1.3955,-1.397,-1.403,-1.4049,-1.4062,-1.4074,-1.4054,-1.4136,-1.4144,-1.4151,-1.4178,-1.4188,-1.4065,-1.4064,-1.4064,-1.4064,0,-1.38,-1.3836,-1.3868,-1.39,-1.3922,-1.3963,-1.3966,-1.3989,-1.3984,-1.399,-1.4039,-1.4056,-1.409,-1.4104,-1.4099,-1.4163,-1.4153,-1.4136,-1.4106,-1.4165,-1.419,-1.42,-1.4068,-1.4067,-1.4066,-1.4066,0,0,-1.3893,-1.3922,-1.3934,-1.3949,-1.3974,-1.4001,-1.4041,-1.4074,-1.4093,-1.4116,-1.415,-1.4197,-1.4181,-1.4199,-1.4196,-1.4225,-1.4285,-1.4204,-1.4205,-1.4219,-1.4357,-1.4371,-1.4383,-1.4277,-1.4279,-1.428,-1.4356,0,-1.3966,-1.4037,-1.4035,-1.4101,-1.4134,-1.4119,-1.4154,-1.4173,-1.4179,-1.4208,-1.4215,-1.4249,-1.4225,-1.4236,-1.4263,-1.4272,-1.4313,-1.4266,-1.4309,-1.4311,-1.4305,-1.4396,-1.441,-1.4481,-1.4365,-1.4367,-1.4368,0,-1.4061,-1.4087,-1.4156,-1.4176,-1.419,-1.4222,-1.4251,-1.4279,-1.43,-1.4303,-1.4323,-1.4315,-1.4356,-1.4324,-1.438,-1.4349,-1.4366,-1.4373,-1.4375,-1.438,-1.4344,-1.4404,-1.4503,-1.4514,-1.4383,-1.4382,-1.4381,0,-1.4123,-1.4175,-1.4223,-1.4236,-1.426,-1.4283,-1.4294,-1.4313,-1.4333,-1.4358,-1.4371,-1.4401,-1.4418,-1.4441,-1.4442,-1.4418,-1.4499,-1.4466,-1.4503,-1.4503,-1.4522,-1.4521,-1.4626,-1.4531,-1.4531,-1.4531,-1.4531,0,-1.4206,-1.4249,-1.4252,-1.4282,-1.4329,-1.4326,-1.4374,-1.4383,-1.44,-1.4431,-1.4419,-1.4449,-1.4447,-1.4478,-1.4478,-1.4526,-1.4533,-1.4536,-1.4536,-1.4538,-1.4538,-1.4551,-1.4546,-1.4534,-1.4533,-1.4533,-1.4532,0,-1.4284,-1.4287,-1.4339,-1.4357,-1.4363,-1.4397,-1.4413,-1.4441,-1.4446,-1.4486,-1.4495,-1.4503,-1.4538,-1.454,-1.4581,-1.4581,-1.4638,-1.4633,-1.4632,-1.4631,-1.4668,-1.4665,-1.4785,-1.4801,-1.4695,-1.4696,-1.4697,0,-1.4337,-1.437,-1.4391,-1.4411,-1.4424,-1.4456,-1.4476,-1.4474,-1.4495,-1.4521,-1.4546,-1.458,-1.4607,-1.4663,-1.4672,-1.4703,-1.4698,-1.4738,-1.4703,-1.4704,-1.47,-1.4698,-1.4702,-1.4746,-1.4747,-1.4748,-1.4748,0,-1.4431,-1.443,-1.4459,-1.4489,-1.4513,-1.4536,-1.4558,-1.4575,-1.4575,-1.4599,-1.4635,-1.4655,-1.4696,-1.473,-1.476,-1.4771,-1.4761,-1.4759,-1.477,-1.4773,-1.4771,-1.4773,-1.4652,-1.4757,-1.4756,-1.4755,-1.4755,-1.4755,-1.4498,-1.4527,-1.4547,-1.4579,-1.4595,-1.4615,-1.4643,-1.4651,-1.468,-1.4713,-1.471,-1.4749,-1.4769,-1.4808,-1.4822,-1.4853,-1.4839,-1.4854,-1.4858,-1.4862,-1.4866,-1.4765,-1.4858,-1.4858,-1.4857,-1.4857,-1.4857,0,-1.4592,-1.4604,-1.4634,-1.4664,-1.469,-1.4677,-1.47,-1.4722,-1.4757,-1.4776,-1.4803,-1.4843,-1.4875,-1.4887,-1.4918,-1.4941,-1.4937,-1.4949,-1.4948,-1.4951,-1.4876,-1.4864,-1.4952,-1.4952,-1.4952,-1.4952,-1.4952,-1.4952,-1.4644,-1.4692,-1.4694,-1.475,-1.4761,-1.4799,-1.4814,-1.4832,-1.4848,-1.4893,-1.492,-1.4927,-1.4944,-1.4976,-1.5005,-1.5007,-1.502,-1.5035,-1.5036,-1.4966,-1.4956,-1.4947,-1.4936,-1.5038,-1.5038,-1.5108,-1.5109,-1.5109]}]]